Weather in Maylyk

Russia / Kurgan Oblast     54°59′43″N   63°01′38″E
temp.,
°C
wind,
m/s
gust,
m/s
humid.,
%
clouds,
%
prec.,
mm/h
press.,
hPa
HPBL,
m
26 february, fri
fri2623:00−25w2310017 0.0 103020
02:00−25wsw2310075 0.0 103020
05:00−27wsw239743 0.0 103019
08:00−27ssw23960 0.0 103019
11:00−23s34870 0.0 1030170
14:00−21s35890 0.0 1030256
17:00−23sse47930 0.0 1029230
20:00−28sse479737 0.0 102991
27 february, sat
sat2723:00−29s459425 0.0 102880
02:00−30sse47940 0.0 102783
05:00−29sse47970 0.0 1026118
08:00−28sse599836 0.0 1024173
11:00−24se5109765 0.0 1022260
14:00−19se71294100 0.1 1019424
17:00−14se71294100 0.5 1016612
20:00−10se71294100 0.9 1013727
28 february, sun
sun2823:00−10se61293100 1.4 1010534
02:00−10se61193100 0.2 1007425
05:00−9se51095100 0.6 1006351
08:00−9ese4895100 0.6 1005263
11:00−8ese4694100 1.0 1005320
14:00−6e3595100 0.6 1004380
17:00−7ne4695100 1.1 1005310
20:00−8ne4795100 0.7 1006282
1 march, mon
mon123:00−10nne479599 1.0 1008222
02:00−13n599493 0.1 1009249
05:00−17n489696 0.2 1011215
08:00−20n4898100 0.0 1013178
11:00−18n4696100 0.1 1015255
14:00−16nnw469399 0.0 1017317
17:00−15nnw359499 0.0 1018298
20:00−18nw239694 0.0 101948
2 march, tue
tue223:00−21nw239574 0.0 102120
02:00−23w22950 0.0 102020
05:00−22wsw23980 0.0 102020
08:00−22wsw339914 0.0 102022
11:00−17sw34957 0.0 1019172
14:00−14sw459344 0.0 1017256
17:00−14ssw479452 0.0 1016233
20:00−18ssw479719 0.0 1016108